Powrót do katalogu

COSMOS 1266 COOLANT

LostLEO
NORAD 29203·DEBRIS·🇷🇺 Russia

Wystrzelony Apr 21, 1981 z Baikonur Cosmodrome

Loading…

Następne Przeloty (najbliższe 24 godziny)

TLE

NieaktualneSource: Space-Track

Epoka: Aug 1, 2026, 02:58 UTC

1 29203U 81037E   26213.12367663 -.00000031  00000-0  47592-4 0  9999
2 29203  64.7502 162.2302 0050108 261.2122  98.3264 13.92104110257512

Śledź COSMOS 1266 COOLANT w czasie rzeczywistym z AllMySat

Download on the App Store